Weather Roundup
Issued by NWS

Home | Current Version | Previous Version | Text Only | Print | Product List | Glossary On
Versions: 1 2 3 4 5 6 7 8 9 10 11 12 13 14 15 16 17 18 19 20 21 22 23 24 25 26 27 28 29 30 31 32 33 34 35 36 37 38 39 40 41 42 43 44 45 46 47 48 49 50
000
NZUS93 KARX 160659
HRRWXR

CURRENT HOURLY OBSERVATIONS ACROSS
MUCH OF THE UPPER MISSISSIPPI VALLEY
NATIONAL WEATHER SERVICE LA CROSSE WI
200 AM CDT WED APR 16 2014


...SOUTHEAST MINNESOTA...


CITY           SKY/WX    TMP DP  RH WIND       PRES   REMARKS
ROCHESTER      CLOUDY    31  19  61 SE15      30.03F WCI  20
ROCHESTER/MAYO CLOUDY    32  15  49 E13G20    30.05S WCI  22
WINONA         PTCLDY    34  23  64 SE8       30.10F WCI  27
AUSTIN         CLOUDY    30  21  69 SE14G21   30.01S WCI  20
ALBERT LEA     MOCLDY    34  19  55 SE16      29.98F WCI  23
DODGE CENTER   MOCLDY    34  21  60 SE15      30.02S WCI  24
PRESTON        CLOUDY    32  19  58 SE9       30.06F WCI  24
OWATONNA       MOCLDY    34  19  55 E15       30.01S WCI  24
FARIBAULT      CLOUDY    36  16  44 E13       30.01F WCI  27
$$

...ELSEWHERE IN MINNESOTA...


CITY           SKY/WX    TMP DP  RH WIND       PRES   REMARKS
MINNEAPOLIS    CLOUDY    34  16  47 E14       30.05S WCI  25
INTNL FALLS    CLEAR     16  10  77 NE3       30.11R
DULUTH         PTCLDY    23   8  52 E5        30.08S WCI  17
RED WING       CLOUDY    36  16  44 E8        30.06F WCI  29
REDWOOD FALLS  CLOUDY    34  19  54 E20G28    29.86F WCI  23
MANKATO        CLOUDY    34  18  51 SE17G23   29.98F WCI  23
WORTHINGTON    CLOUDY    34  19  55 SE23G29   29.79F WCI  22
FAIRMONT       CLOUDY    34  19  55 SE23      29.91F WCI  22
$$

...SOUTHWEST WISCONSIN...


CITY           SKY/WX    TMP DP  RH WIND       PRES   REMARKS
LA CROSSE      CLOUDY    32  19  58 E8        30.11F WCI  25
PRAIRIE DU CHI MOCLDY    32  20  63 E6        30.13F WCI  26
BOSCOBEL       CLOUDY    29  22  75 CALM      30.15F
LONE ROCK      NOT AVBL
PLATTEVILLE    PTCLDY    30  21  69 E7        30.15F WCI  23
FORT MC COY    CLOUDY    29  19  68 E5        30.15S WCI  24
VIROQUA        PTSUNNY   28  19  68 E9        30.10F WCI  20
WIS DELLS      CLOUDY    28  19  67 E5        30.16S WCI  23
$$

...ELSEWHERE IN WISCONSIN...


CITY           SKY/WX    TMP DP  RH WIND       PRES   REMARKS
MILWAUKEE      PTCLDY    26  20  77 CALM      30.23R
MADISON        CLOUDY    29  19  66 E8        30.18S WCI  21
GREEN BAY      CLEAR     27  22  81 S3        30.20S
EAU CLAIRE     NOT AVBL
BLACK RVR FLS  CLOUDY    27  23  83 CALM      30.14S
MEDFORD        CLOUDY    25  16  67 SE5       30.11S WCI  19
WAUSAU         CLOUDY    22  16  78 E5        30.14R WCI  16
WIS RAPIDS     CLOUDY    24  16  71 SE6       30.17S WCI  17
MARSHFIELD     MOCLDY    26  18  71 SE3       30.13S
RICE LAKE      NOT AVBL
$$

...NORTHEAST IOWA...


CITY           SKY/WX    TMP DP  RH WIND       PRES   REMARKS
WATERLOO       PTCLDY    33  18  53 SE14      30.04F WCI  23
DUBUQUE        PTCLDY    29  20  69 SE8       30.13S WCI  21
DECORAH        CLOUDY    32  19  59 SE8       30.08F WCI  25
MASON CITY     PTCLDY    32  20  61 SE18      29.99F WCI  20
CHARLES CITY   CLOUDY    32  19  59 SE16      30.05S WCI  21
OELWEIN        CLOUDY   N/A N/A N/A SE14G20   30.07F
$$

...ELSEWHERE IN IOWA...


CITY           SKY/WX    TMP DP  RH WIND       PRES   REMARKS
DES MOINES     PTCLDY    40  27  59 SE14      29.95F WCI  32
IOWA CITY      PTCLDY    33  22  63 SE8       30.12S WCI  26
FORT DODGE     MOCLDY    36  25  64 SE15G22   29.91F WCI  26
MARSHALLTOWN   MOCLDY    35  23  61 SE16      29.99F WCI  25
CEDAR RAPIDS   PTCLDY    33  20  58 SE13      30.07F WCI  24
$$

...NORTHERN ILLINOIS...


CITY           SKY/WX    TMP DP  RH WIND       PRES   REMARKS
CHICAGO-OHARE  CLEAR     29  19  66 S6        30.22R WCI  23
DUPAGE         CLEAR     27  20  75 S6        30.21R WCI  20
CHICAGO-MIDWAY CLEAR     32  21  64 S6        30.23S WCI  26
MOLINE         CLEAR     29  19  66 E6        30.15F WCI  23
ROCKFORD       CLEAR     28  21  75 SE5       30.21S WCI  23
STERLING       CLEAR     28  21  74 SE6       30.18S WCI  22
PEORIA         CLEAR     34  20  56 SE7       30.19F WCI  28
$$

NOTE: "FAIR" INDICATES FEW OR NO CLOUDS BELOW 12,000 FEET WITH NO
SIGNIFICANT WEATHER AND/OR OBSTRUCTIONS TO VISIBILITY. WIND
SPEEDS ARE IN MILES-PER-HOUR.



USA.gov is the U.S. government's official web portal to all federal, state and local government web resources and services.